• In Denmark
  • List of Countries
  • For 7 days
  • Water Temperature
  • Satellite Maps
  • Weather Map
  • Weather Widgets
  • user-avatar
    Login

    Hourly Weather Dankon

    Today, 23 February, Friday

    Time Temperature Precipitation Wind Pressure Humidity
    00:00 +20°C° 0.2 mm 1 mps 703 mmHg 94%
    01:00 +18°C° 0 mm 0 mps 703 mmHg 96%
    02:00 +18°C° 0.1 mm 0 mps 703 mmHg 96%
    03:00 +17°C° 0.1 mm 0 mps 703 mmHg 97%
    04:00 +17°C° 0.1 mm 0 mps 703 mmHg 97%
    05:00 +17°C° 0.1 mm 0 mps 703 mmHg 97%
    06:00 +17°C° 0.1 mm 0 mps 703 mmHg 97%
    07:00 +17°C° 0.1 mm 0 mps 703 mmHg 97%
    08:00 +20°C° 0.4 mm 0 mps 704 mmHg 87%
    09:00 +24°C° 0.4 mm 1 mps 705 mmHg 78%
    10:00 +27°C° 0.4 mm 1 mps 705 mmHg 68%
    11:00 +27°C° 1 mm 1 mps 705 mmHg 66%
    12:00 +28°C° 1 mm 1 mps 704 mmHg 63%
    13:00 +29°C° 1 mm 1 mps 704 mmHg 60%
    14:00 +29°C° 1.6 mm 1 mps 703 mmHg 63%
    15:00 +28°C° 1.6 mm 1 mps 703 mmHg 66%
    16:00 +27°C° 1.6 mm 1 mps 702 mmHg 69%
    17:00 +26°C° 1 mm 1 mps 702 mmHg 75%
    18:00 +24°C° 1 mm 1 mps 702 mmHg 81%
    19:00 +22°C° 1 mm 1 mps 702 mmHg 87%
    20:00 +21°C° 0.1 mm 1 mps 703 mmHg 89%
    21:00 +21°C° 0.1 mm 1 mps 703 mmHg 91%
    22:00 +20°C° 0.1 mm 1 mps 703 mmHg 94%
    23:00 +20°C° 0 mm 1 mps 703 mmHg 94%

    Tomorrow, 24 February, Saturday

    Time Temperature Precipitation Wind Pressure Humidity
    00:00 +20°C° 0 mm 1 mps 703 mmHg 95%
    01:00 +18°C° 0 mm 0 mps 704 mmHg 96%
    02:00 +17°C° 0 mm 0 mps 703 mmHg 96%
    03:00 +17°C° 0 mm 0 mps 703 mmHg 97%
    04:00 +17°C° 0 mm 0 mps 703 mmHg 97%
    05:00 +17°C° 0 mm 0 mps 704 mmHg 97%
    06:00 +17°C° 0 mm 0 mps 704 mmHg 97%
    07:00 +17°C° 0 mm 0 mps 704 mmHg 97%
    08:00 +20°C° 0 mm 0 mps 705 mmHg 84%
    09:00 +24°C° 0 mm 0 mps 706 mmHg 71%
    10:00 +27°C° 0 mm 0 mps 707 mmHg 59%
    11:00 +28°C° 0.1 mm 0 mps 706 mmHg 53%
    12:00 +31°C° 0.1 mm 1 mps 705 mmHg 47%
    13:00 +33°C° 0.1 mm 1 mps 705 mmHg 42%
    14:00 +32°C° 0 mm 1 mps 704 mmHg 42%
    15:00 +32°C° 0 mm 1 mps 703 mmHg 42%
    16:00 +32°C° 0 mm 1 mps 703 mmHg 42%
    17:00 +29°C° 0 mm 1 mps 703 mmHg 50%
    18:00 +27°C° 0 mm 1 mps 703 mmHg 58%
    19:00 +25°C° 0 mm 1 mps 703 mmHg 67%
    20:00 +24°C° 0 mm 1 mps 703 mmHg 70%
    21:00 +23°C° 0 mm 1 mps 704 mmHg 74%
    22:00 +22°C° 0 mm 1 mps 704 mmHg 77%
    23:00 +22°C° 0 mm 1 mps 704 mmHg 80%

    Day after tomorrow, 25 February, Sunday

    Time Temperature Precipitation Wind Pressure Humidity
    00:00 +22°C° 0 mm 1 mps 704 mmHg 82%
    01:00 +21°C° 0 mm 1 mps 704 mmHg 84%
    02:00 +19°C° 0 mm 0 mps 703 mmHg 86%
    03:00 +19°C° 0 mm 0 mps 703 mmHg 87%
    04:00 +18°C° 0 mm 0 mps 703 mmHg 89%
    05:00 +18°C° 0 mm 0 mps 703 mmHg 89%
    06:00 +18°C° 0 mm 0 mps 704 mmHg 89%
    07:00 +18°C° 0 mm 0 mps 704 mmHg 89%
    08:00 +22°C° 0 mm 0 mps 705 mmHg 76%
    09:00 +25°C° 0 mm 0 mps 706 mmHg 63%
    10:00 +29°C° 0 mm 0 mps 707 mmHg 49%
    11:00 +30°C° 0.1 mm 0 mps 706 mmHg 44%
    12:00 +34°C° 0.1 mm 1 mps 705 mmHg 38%
    13:00 +35°C° 0.1 mm 1 mps 704 mmHg 32%
    14:00 +34°C° 0 mm 1 mps 703 mmHg 34%
    15:00 +33°C° 0 mm 1 mps 703 mmHg 35%
    16:00 +33°C° 0 mm 1 mps 702 mmHg 36%
    17:00 +30°C° 0 mm 1 mps 702 mmHg 42%
    18:00 +26°C° 0 mm 0 mps 702 mmHg 48%
    19:00 +24°C° 0 mm 0 mps 702 mmHg 54%
    20:00 +23°C° 0 mm 0 mps 703 mmHg 58%
    21:00 +25°C° 0 mm 1 mps 703 mmHg 62%
    22:00 +24°C° 0 mm 1 mps 704 mmHg 67%
    23:00 +23°C° 0 mm 1 mps 703 mmHg 70%

    26 February, Monday

    Time Temperature Precipitation Wind Pressure Humidity
    00:00 +23°C° 0 mm 1 mps 703 mmHg 73%
    01:00 +20°C° 0 mm 0 mps 703 mmHg 76%
    02:00 +20°C° 0 mm 0 mps 702 mmHg 78%
    03:00 +19°C° 0 mm 0 mps 702 mmHg 80%
    04:00 +19°C° 0 mm 0 mps 702 mmHg 83%
    05:00 +18°C° 0 mm 0 mps 702 mmHg 84%
    06:00 +18°C° 0 mm 0 mps 703 mmHg 85%
    07:00 +18°C° 0 mm 0 mps 703 mmHg 86%
    08:00 +22°C° 0 mm 0 mps 704 mmHg 73%
    09:00 +25°C° 0 mm 0 mps 705 mmHg 60%
    10:00 +29°C° 0 mm 0 mps 706 mmHg 47%
    11:00 +32°C° 0.1 mm 1 mps 705 mmHg 43%
    12:00 +33°C° 0.1 mm 1 mps 704 mmHg 39%
    13:00 +34°C° 0.1 mm 1 mps 703 mmHg 35%
    14:00 +33°C° 0 mm 1 mps 703 mmHg 36%
    15:00 +32°C° 0 mm 1 mps 702 mmHg 38%
    16:00 +32°C° 0 mm 1 mps 701 mmHg 39%
    17:00 +29°C° 0.1 mm 1 mps 701 mmHg 47%
    18:00 +27°C° 0.1 mm 1 mps 701 mmHg 55%
    19:00 +25°C° 0.1 mm 1 mps 702 mmHg 63%
    20:00 +24°C° 0.1 mm 1 mps 702 mmHg 67%
    21:00 +23°C° 0.1 mm 1 mps 702 mmHg 72%
    22:00 +23°C° 0.1 mm 1 mps 703 mmHg 76%
    23:00 +22°C° 0 mm 1 mps 702 mmHg 78%

    27 February, Tuesday

    Time Temperature Precipitation Wind Pressure Humidity
    00:00 +22°C° 0 mm 1 mps 702 mmHg 80%
    01:00 +21°C° 0 mm 1 mps 702 mmHg 82%
    02:00 +21°C° 0 mm 1 mps 702 mmHg 83%
    03:00 +19°C° 0 mm 0 mps 701 mmHg 84%
    04:00 +18°C° 0 mm 0 mps 701 mmHg 86%
    05:00 +18°C° 0 mm 0 mps 702 mmHg 86%
    06:00 +18°C° 0 mm 0 mps 702 mmHg 87%
    07:00 +18°C° 0 mm 0 mps 703 mmHg 87%
    08:00 +23°C° 0.1 mm 1 mps 703 mmHg 75%
    09:00 +27°C° 0.1 mm 1 mps 704 mmHg 63%
    10:00 +30°C° 0.1 mm 1 mps 704 mmHg 52%
    11:00 +31°C° 0.2 mm 1 mps 704 mmHg 47%
    12:00 +32°C° 0.2 mm 2 mps 703 mmHg 43%
    13:00 +34°C° 0.2 mm 2 mps 702 mmHg 38%
    14:00 +32°C° 0 mm 2 mps 701 mmHg 38%
    15:00 +32°C° 0 mm 2 mps 700 mmHg 38%
    16:00 +32°C° 0 mm 2 mps 700 mmHg 38%
    17:00 +30°C° 0 mm 1 mps 700 mmHg 45%
    18:00 +28°C° 0 mm 1 mps 700 mmHg 52%
    19:00 +26°C° 0 mm 1 mps 700 mmHg 59%
    20:00 +25°C° 0 mm 1 mps 700 mmHg 62%
    21:00 +24°C° 0 mm 1 mps 701 mmHg 66%
    22:00 +23°C° 0 mm 1 mps 701 mmHg 70%
    23:00 +23°C° 0 mm 1 mps 701 mmHg 71%

    28 February, Wednesday

    Time Temperature Precipitation Wind Pressure Humidity
    00:00 +22°C° 0 mm 1 mps 701 mmHg 73%
    01:00 +22°C° 0 mm 1 mps 700 mmHg 75%
    02:00 +19°C° 0 mm 0 mps 700 mmHg 76%
    03:00 +19°C° 0 mm 0 mps 700 mmHg 77%
    04:00 +19°C° 0 mm 0 mps 700 mmHg 78%
    05:00 +19°C° 0 mm 0 mps 701 mmHg 78%
    06:00 +19°C° 0 mm 0 mps 701 mmHg 78%
    07:00 +19°C° 0 mm 0 mps 701 mmHg 79%
    08:00 +23°C° 0 mm 0 mps 702 mmHg 66%
    09:00 +26°C° 0 mm 0 mps 703 mmHg 54%
    10:00 +32°C° 0 mm 1 mps 704 mmHg 41%
    11:00 +33°C° 0 mm 1 mps 703 mmHg 38%
    12:00 +34°C° 0 mm 1 mps 702 mmHg 34%
    13:00 +34°C° 0 mm 1 mps 701 mmHg 30%
    14:00 +34°C° 0 mm 1 mps 701 mmHg 31%
    15:00 +34°C° 0 mm 1 mps 700 mmHg 31%
    16:00 +34°C° 0 mm 1 mps 700 mmHg 32%
    17:00 +31°C° 0 mm 1 mps 700 mmHg 39%
    18:00 +29°C° 0 mm 1 mps 700 mmHg 47%
    19:00 +27°C° 0 mm 1 mps 700 mmHg 54%
    20:00 +26°C° 0 mm 1 mps 700 mmHg 57%
    21:00 +25°C° 0 mm 1 mps 700 mmHg 61%
    22:00 +24°C° 0 mm 1 mps 701 mmHg 64%
    23:00 +24°C° 0 mm 1 mps 700 mmHg 65%
    Show more